GW5031 Weather Reports


time (UTC)temp
C
wind
direction
speed
KPH
gust
KPH
rain 1hr
cm
rain 24hr
cm
rain mn
cm
humidity
%
barometer
mb
20260906230739 36 203 4.8 19.3 0.00 0.00 0.00 42 1012.6
20260906230239 36 194 6.4 19.3 0.00 0.00 0.00 42 1012.6
20260906225738 36 210 6.4 16.1 0.00 0.00 0.00 42 1012.7
20260906225238 36 184 4.8 16.1 0.00 0.00 0.00 43 1012.5
20260906224738 36 189 3.2 12.9 0.00 0.00 0.00 42 1012.7
20260906224239 36 216 6.4 12.9 0.00 0.00 0.00 42 1012.6
20260906223707 37 190 8.0 11.3 0.00 0.00 0.00 41 1012.9
20260906223209 37 189 4.8 17.7 0.00 0.00 0.00 40 1012.7
20260906222707 36 190 4.8 17.7 0.00 0.00 0.00 41 1012.6
20260906222208 37 166 8.0 14.5 0.00 0.00 0.00 40 1012.6
20260906221707 37 189 6.4 11.3 0.00 0.00 0.00 41 1012.8
20260906221208 37 204 4.8 9.7 0.00 0.00 0.00 40 1012.7
20260906220707 38 178 3.2 20.9 0.00 0.00 0.00 38 1012.7
20260906220137 37 202 4.8 20.9 0.00 0.00 0.00 41 1012.7
20260906215636 37 176 9.7 14.5 0.00 0.00 0.00 40 1012.7
20260906215136 37 169 4.8 17.7 0.00 0.00 0.00 40 1012.6
20260906214637 37 198 3.2 17.7 0.00 0.00 0.00 41 1012.7
20260906214137 37 182 9.7 14.5 0.00 0.00 0.00 40 1012.7
20260906213635 37 180 8.0 17.7 0.00 0.00 0.00 42 1012.8
20260906213106 37 202 6.4 17.7 0.00 0.00 0.00 41 1012.9
20260906212605 37 187 6.4 16.1 0.00 0.00 0.00 41 1013.1
20260906212105 38 160 4.8 17.7 0.00 0.00 0.00 41 1013.0
20260906211605 37 208 8.0 17.7 0.00 0.00 0.00 41 1013.0
20260906211105 37 187 4.8 14.5 0.00 0.00 0.00 40 1013.3
20260906210605 37 165 6.4 19.3 0.00 0.00 0.00 40 1013.2
20260906205534 37 198 4.8 17.7 0.00 0.00 0.00 40 1013.4
20260906205034 37 203 8.0 19.3 0.00 0.00 0.00 40 1013.4
20260906204535 38 131 3.2 20.9 0.00 0.00 0.00 40 1013.8
20260906204034 37 212 8.0 20.9 0.00 0.00 0.00 41 1013.7
20260906203004 38 180 3.2 16.1 0.00 0.00 0.00 40 1013.7
20260906202005 38 175 6.4 17.7 0.00 0.00 0.00 40 1013.9
20260906201503 37 171 3.2 14.5 0.00 0.00 0.00 41 1014.0
20260906201003 38 194 1.6 14.5 0.00 0.00 0.00 39 1013.8
20260906195933 37 176 8.0 17.7 0.00 0.00 0.00 43 1014.2
20260906194933 36 196 8.0 17.7 0.00 0.00 0.00 44 1014.2
20260906193932 38 158 3.2 16.1 0.00 0.00 0.00 40 1014.3
20260906191902 38 173 6.4 16.1 0.00 0.00 0.00 42 1014.4
20260906191401 37 203 6.4 16.1 0.00 0.00 0.00 44 1014.7
20260906190901 37 196 3.2 12.9 0.00 0.00 0.00 44 1014.6
20260906190401 37 200 8.0 19.3 0.00 0.00 0.00 45 1014.5
20260906185901 36 147 9.7 19.3 0.00 0.00 0.00 47 1014.7
20260906185331 36 201 9.7 19.3 0.00 0.00 0.00 45 1014.7
20260906184830 36 205 8.0 19.3 0.00 0.00 0.00 47 1014.9
20260906184331 37 148 9.7 17.7 0.00 0.00 0.00 46 1014.9
20260906183830 36 237 4.8 17.7 0.00 0.00 0.00 47 1015.0
20260906183330 36 191 11.3 14.5 0.00 0.00 0.00 47 1015.1
20260906182300 36 162 6.4 14.5 0.00 0.00 0.00 48 1015.1
20260906181800 36 170 9.7 14.5 0.00 0.00 0.00 48 1015.1
20260906181300 36 178 4.8 16.1 0.00 0.00 0.00 48 1015.2
20260906180800 36 194 4.8 16.1 0.00 0.00 0.00 47 1015.5
20260906180300 36 158 6.4 14.5 0.00 0.00 0.00 49 1015.3
20260906175229 36 217 3.2 14.5 0.00 0.00 0.00 48 1015.8
20260906174729 36 255 1.6 11.3 0.00 0.00 0.00 48 1015.6
20260906174228 37 204 4.8 8.0 0.00 0.00 0.00 48 1015.7
20260906173728 37 182 3.2 16.1 0.00 0.00 0.00 48 1016.0
20260906173229 35 209 8.0 16.1 0.00 0.00 0.00 50 1016.0
20260906172157 35 178 3.2 17.7 0.00 0.00 0.00 50 1016.0
20260906171658 35 205 4.8 11.3 0.00 0.00 0.00 50 1016.2
20260906171157 36 216 3.2 14.5 0.00 0.00 0.00 48 1016.1
20260906170658 35 228 9.7 14.5 0.00 0.00 0.00 50 1016.2
20260906170157 36 216 1.6 6.4 0.00 0.00 0.00 51 1016.3
20260906165657 35 166 3.2 17.7 0.00 0.00 0.00 51 1016.2
20260906165157 34 174 3.2 17.7 0.00 0.00 0.00 53 1016.2
20260906164127 34 149 8.0 16.1 0.00 0.00 0.00 52 1016.6
20260906163126 35 191 3.2 11.3 0.00 0.00 0.00 53 1016.4
20260906162626 35 138 1.6 9.7 0.00 0.00 0.00 54 1016.4
20260906161556 33 140 8.0 12.9 0.00 0.00 0.00 55 1016.3
20260906161056 33 193 6.4 12.9 0.00 0.00 0.00 54 1016.4
20260906160555 33 226 9.7 11.3 0.00 0.00 0.00 56 1016.2
20260906160055 33 226 8.0 9.7 0.00 0.00 0.00 57 1016.3
20260906155555 33 180 3.2 8.0 0.00 0.00 0.00 58 1016.3
20260906155055 33 206 3.2 8.0 0.00 0.00 0.00 59 1016.4
20260906154525 33 236 3.2 8.0 0.00 0.00 0.00 61 1016.2
20260906153524 32 273 0.0 9.7 0.00 0.00 0.00 64 1016.1
20260906153025 32 204 8.0 8.0 0.00 0.00 0.00 64 1016.2
20260906152525 33 170 3.2 8.0 0.00 0.00 0.00 64 1016.2
20260906152025 32 208 3.2 9.7 0.00 0.00 0.00 64 1016.2
20260906151454 31 190 3.2 9.7 0.00 0.00 0.00 68 1016.2
20260906150954 32 203 3.2 9.7 0.00 0.00 0.00 66 1016.1
20260906150454 31 176 3.2 9.7 0.00 0.00 0.00 67 1016.0
20260906145454 30 157 3.2 9.7 0.00 0.00 0.00 70 1016.0
20260906144953 30 220 6.4 9.7 0.00 0.00 0.00 73 1015.9
20260906143923 30 181 3.2 8.0 0.00 0.00 0.00 73 1016.2
20260906142922 30 212 6.4 6.4 0.00 0.00 0.00 74 1016.1
20260906142423 30 204 0.0 9.7 0.00 0.00 0.00 74 1016.3
20260906141921 28 171 3.2 9.7 0.00 0.00 0.00 77 1016.2
20260906141352 28 205 3.2 6.4 0.00 0.00 0.00 77 1016.1
20260906140851 28 205 4.8 6.4 0.00 0.00 0.00 79 1016.2
20260906135352 27 213 3.2 6.4 0.00 0.00 0.00 82 1016.0
20260906133821 27 222 3.2 6.4 0.00 0.00 0.00 85 1015.8
20260906133321 26 184 3.2 4.8 0.00 0.00 0.00 86 1016.0
20260906132821 26 242 0.0 6.4 0.00 0.00 0.00 86 1015.9
20260906132321 26 161 3.2 6.4 0.00 0.00 0.00 87 1016.1
20260906131820 26 227 3.2 6.4 0.00 0.00 0.00 88 1015.9
20260906131320 26 220 3.2 6.4 0.00 0.00 0.00 88 1016.0
20260906130751 25 212 1.6 3.2 0.00 0.00 0.00 89 1015.9
20260906130249 25 293 0.0 3.2 0.00 0.00 0.00 89 1016.0
20260906125750 25 191 1.6 3.2 0.00 0.00 0.00 90 1015.8
20260906125250 25 219 1.6 3.2 0.00 0.00 0.00 90 1015.7
20260906124750 25 175 1.6 3.2 0.00 0.00 0.00 90 1015.9
20260906124249 25 162 1.6 3.2 0.00 0.00 0.00 91 1015.5
20260906123219 24 171 0.0 3.2 0.00 0.00 0.00 91 1015.5
20260906122218 24 211 0.0 3.2 0.00 0.00 0.00 91 1015.5
20260906121218 24 164 1.6 3.2 0.00 0.00 0.00 91 1015.4
20260906120149 24 127 0.0 3.2 0.00 0.00 0.00 91 1015.2
20260906115147 24 228 0.0 3.2 0.00 0.00 0.00 90 1015.4
20260906114648 24 197 0.0 3.2 0.00 0.00 0.00 91 1015.3
20260906113116 25 237 0.0 1.6 0.00 0.00 0.00 90 1015.0
20260906112617 25 309 0.0 1.6 0.00 0.00 0.00 90 1015.2
20260906112117 25 226 0.0 3.2 0.00 0.00 0.00 90 1015.1
20260906111616 25 197 0.0 3.2 0.00 0.00 0.00 90 1015.0
20260906110616 25 180 0.0 3.2 0.00 0.00 0.00 89 1015.1
20260906110046 25 211 0.0 3.2 0.00 0.00 0.00 89 1014.8
20260906105045 25 179 0.0 3.2 0.00 0.00 0.00 89 1014.9
20260906104545 25 218 0.0 3.2 0.00 0.00 0.00 89 1014.9
20260906104046 25 209 0.0 3.2 0.00 0.00 0.00 88 1015.1
20260906103545 25 224 0.0 1.6 0.00 0.00 0.00 88 1014.9
20260906103015 25 186 0.0 3.2 0.00 0.00 0.00 88 1014.9
20260906102016 25 214 3.2 3.2 0.00 0.00 0.00 88 1014.7
20260906101514 25 207 0.0 4.8 0.00 0.00 0.00 87 1014.8
20260906101015 25 201 1.6 4.8 0.00 0.00 0.00 87 1014.6
20260906100514 25 219 1.6 3.2 0.00 0.00 0.00 87 1014.5
20260906095945 25 212 1.6 3.2 0.00 0.00 0.00 87 1014.8
20260906095445 25 198 0.0 3.2 0.00 0.00 0.00 86 1014.6
20260906094944 25 214 1.6 3.2 0.00 0.00 0.00 86 1014.6
20260906094443 25 205 0.0 3.2 0.00 0.00 0.00 85 1014.3
20260906093944 26 218 0.0 3.2 0.00 0.00 0.00 85 1014.5
20260906093444 26 235 0.0 3.2 0.00 0.00 0.00 85 1014.4
20260906092913 26 214 0.0 3.2 0.00 0.00 0.00 84 1014.4
20260906092414 26 155 0.0 3.2 0.00 0.00 0.00 84 1014.3
20260906091912 26 160 1.6 4.8 0.00 0.00 0.00 83 1014.2
20260906091413 26 165 1.6 4.8 0.00 0.00 0.00 83 1014.1
20260906090412 26 180 1.6 3.2 0.00 0.00 0.00 82 1014.0
20260906085842 26 195 0.0 3.2 0.00 0.00 0.00 82 1014.3
20260906085342 26 154 0.0 3.2 0.00 0.00 0.00 82 1014.1
20260906084842 26 160 0.0 3.2 0.00 0.00 0.00 81 1014.0
20260906084344 26 146 1.6 3.2 0.00 0.00 0.00 81 1014.0
20260906083842 26 117 0.0 3.2 0.00 0.00 0.00 81 1014.1
20260906083342 27 154 0.0 3.2 0.00 0.00 0.00 81 1013.9
20260906082812 27 170 0.0 4.8 0.00 0.00 0.00 80 1014.2
20260906082311 27 153 3.2 4.8 0.00 0.00 0.00 80 1014.0
20260906080811 27 144 1.6 6.4 0.00 0.00 0.00 80 1014.3
20260906080310 27 157 3.2 4.8 0.00 0.00 0.00 79 1014.2
20260906075810 27 217 0.0 4.8 0.00 0.00 0.00 79 1014.4
20260906075240 27 113 0.0 4.8 0.00 0.00 0.00 79 1014.3
20260906074741 27 164 0.0 4.8 0.00 0.00 0.00 79 1014.2
20260906072740 27 171 0.0 3.2 0.00 0.00 0.00 79 1014.2
20260906071709 27 230 0.0 1.6 0.00 0.00 0.00 78 1014.2
20260906070708 27 160 0.0 1.6 0.00 0.00 0.00 77 1014.3
20260906070209 27 155 0.0 3.2 0.00 0.00 0.00 77 1014.3
20260906065708 27 222 0.0 3.2 0.00 0.00 0.00 77 1014.2
20260906065139 27 205 0.0 3.2 0.00 0.00 0.00 77 1014.5
20260906064638 27 136 0.0 1.6 0.00 0.00 0.00 76 1014.5
20260906064139 27 195 0.0 3.2 0.00 0.00 0.00 75 1014.5
20260906063638 27 246 0.0 4.8 0.00 0.00 0.00 75 1014.7
20260906063137 27 212 0.0 4.8 0.00 0.00 0.00 74 1014.5
20260906062638 27 205 0.0 4.8 0.00 0.00 0.00 74 1014.3
20260906061607 27 192 1.6 6.4 0.00 0.00 0.00 74 1014.4
20260906061107 28 190 0.0 8.0 0.00 0.00 0.00 73 1014.5
20260906060606 28 204 3.2 8.0 0.00 0.00 0.00 72 1014.4
20260906060106 28 141 4.8 9.7 0.00 0.00 0.00 71 1014.7
20260906055606 28 166 1.6 9.7 0.00 0.00 0.00 70 1014.4
20260906055106 28 174 1.6 4.8 0.00 0.00 0.00 70 1014.6
20260906054536 28 212 0.0 3.2 0.00 0.00 0.00 70 1014.3
20260906054036 28 205 0.0 4.8 0.00 0.00 0.00 70 1014.7
20260906053536 28 151 3.2 4.8 0.00 0.00 0.00 69 1014.5
20260906053036 28 189 3.2 6.4 0.00 0.00 0.00 69 1014.6
20260906052535 28 207 0.0 6.4 0.00 0.00 0.00 69 1014.5
20260906052036 28 158 3.2 4.8 0.00 0.00 0.00 68 1014.6
20260906051506 28 179 3.2 3.2 0.00 0.00 0.00 68 1014.5
20260906051005 28 180 1.6 3.2 0.00 0.00 0.00 67 1014.4
20260906050505 29 155 3.2 3.2 0.00 0.00 0.00 67 1014.3
20260906050005 29 202 0.0 4.8 0.00 0.00 0.00 66 1014.3
20260906045505 29 180 0.0 4.8 0.00 0.00 0.00 66 1014.3
20260906045007 29 147 3.2 8.0 0.00 0.00 0.00 65 1014.4
20260906043934 29 150 3.2 8.0 0.00 0.00 0.00 65 1014.4
20260906043434 29 164 3.2 4.8 0.00 0.00 0.00 66 1014.2
20260906042934 29 188 0.0 6.4 0.00 0.00 0.00 66 1014.3
20260906042434 29 161 1.6 6.4 0.00 0.00 0.00 66 1014.4
20260906041933 29 185 4.8 6.4 0.00 0.00 0.00 66 1014.4
20260906041403 30 227 3.2 8.0 0.00 0.00 0.00 67 1014.5
20260906040903 29 169 3.2 8.0 0.00 0.00 0.00 67 1014.5
20260906040402 30 182 0.0 6.4 0.00 0.00 0.00 66 1014.5
20260906035903 30 191 0.0 6.4 0.00 0.00 0.00 67 1014.3
20260906035402 30 213 0.0 4.8 0.00 0.00 0.00 66 1014.6
20260906034333 30 195 0.0 3.2 0.00 0.00 0.00 66 1014.4
20260906033832 30 159 1.6 8.0 0.00 0.00 0.00 66 1014.6
20260906032832 30 184 3.2 6.4 0.00 0.00 0.00 66 1014.5
20260906032332 30 167 3.2 4.8 0.00 0.00 0.00 65 1014.4
20260906031831 30 207 1.6 4.8 0.00 0.00 0.00 65 1014.5
20260906031331 30 180 0.0 4.8 0.00 0.00 0.00 65 1014.4
20260906030801 30 128 3.2 8.0 0.00 0.00 0.00 64 1014.4
20260906030302 30 165 3.2 6.4 0.00 0.00 0.00 64 1014.5
20260906025800 30 224 3.2 6.4 0.00 0.00 0.00 64 1014.5
20260906025301 30 155 3.2 9.7 0.00 0.00 0.00 65 1014.5
20260906024800 30 153 6.4 12.9 0.00 0.00 0.00 64 1014.4
20260906024301 30 163 3.2 12.9 0.00 0.00 0.00 64 1014.3
20260906023231 30 197 3.2 9.7 0.00 0.00 0.00 64 1014.1
20260906022230 30 188 3.2 9.7 0.00 0.00 0.00 63 1014.0
20260906021729 30 212 6.4 9.7 0.00 0.00 0.00 63 1014.0
20260906020700 30 194 4.8 11.3 0.00 0.00 0.00 63 1013.7
20260906020200 30 187 3.2 11.3 0.00 0.00 0.00 63 1013.7
20260906015659 30 196 3.2 8.0 0.00 0.00 0.00 62 1013.6
20260906015158 31 180 3.2 8.0 0.00 0.00 0.00 62 1013.8
20260906014659 31 209 4.8 11.3 0.00 0.00 0.00 62 1013.6
20260906014158 31 182 3.2 12.9 0.00 0.00 0.00 61 1013.5
20260906013128 31 204 9.7 14.5 0.00 0.00 0.00 60 1013.4
20260906012628 31 164 3.2 9.7 0.00 0.00 0.00 59 1013.4
20260906012129 31 190 3.2 14.5 0.00 0.00 0.00 59 1013.3
20260906011628 31 140 3.2 17.7 0.00 0.00 0.00 58 1013.2
20260906011127 32 171 4.8 17.7 0.00 0.00 0.00 57 1013.2
20260906010558 32 220 4.8 19.3 0.00 0.00 0.00 56 1013.0
20260906010057 32 162 6.4 19.3 0.00 0.00 0.00 54 1012.9
20260906005557 33 165 6.4 16.1 0.00 0.00 0.00 53 1013.1
20260906005058 33 187 3.2 16.1 0.00 0.00 0.00 52 1012.8
20260906004557 33 192 1.6 16.1 0.00 0.00 0.00 51 1012.8
20260906003557 34 195 1.6 16.1 0.00 0.00 0.00 49 1012.6
20260906003026 34 173 4.8 16.1 0.00 0.00 0.00 48 1012.6
20260906002526 35 207 4.8 12.9 0.00 0.00 0.00 45 1012.4
20260906001026 35 138 4.8 9.7 0.00 0.00 0.00 44 1012.5
20260906000526 35 203 4.8 9.7 0.00 0.00 0.00 44 1012.4
20260905235956 36 209 4.8 9.7 0.00 0.00 0.00 43 1012.4
20260905235455 36 171 3.2 9.7 0.00 0.00 0.00 43 1012.4
20260905234954 36 148 4.8 11.3 0.00 0.00 0.00 42 1012.2
20260905234454 36 209 6.4 11.3 0.00 0.00 0.00 42 1012.2
20260905233955 36 205 3.2 6.4 0.00 0.00 0.00 42 1012.1
20260905233455 37 197 3.2 9.7 0.00 0.00 0.00 41 1012.3
20260905232924 37 177 3.2 12.9 0.00 0.00 0.00 41 1012.3
20260905231924 37 180 4.8 14.5 0.00 0.00 0.00 41 1012.4
20260905231425 36 186 4.8 12.9 0.00 0.00 0.00 41 1012.3